Location: Bon Acre
(42.6442°N, 73.5758°W)
Time: 22:56:36
(UTC+00:00)

GEOS 3 Rocket - Pass Details

Date: 14 December 2025
Orbit: 769 x 845 km, 115.0° (Epoch: 21 January)

Event Time Altitude Azimuth Distance (km) Brightness Sun altitude
Exits shadow 21:56:47 - 41° (NE) 2,878 5.9 -6.6°
Reaches altitude 10° 21:57:50 10° 44° (NE) 2,469 5.5 -6.7°
Maximum altitude 22:03:08 58° 123° (ESE) 978 3.9 -7.6°
Drops below altitude 10° 22:08:24 10° 202° (SSW) 2,451 6.8 -8.5°
Sets 22:10:45 0° 206° (SSW) 3,376 7.7 -8.9°
